User: anonymous   Login
Location: Znojmo
(48.8500°N, 16.0500°E)
Time: 20:14:56
(UTC+02:00)
Language:

ISS - Orbit

View from above orbital plane
View from above orbital plane
View from above satellite
View from above satellite

Ground track
Ground track

The orbit data is extracted from the following two-line orbital elements,

1 25544U 98067A   19115.56079814  .00016717  00000-0  10270-3 0  9037
2 25544  51.6387 262.7887 0001496 222.2716 137.8321 15.52613864  7074
Epoch (UTC): 25 April 2019 13:27:32
Eccentricity: 0.0001496
inclination: 51.6387°
perigee height: 408 km
apogee height: 410 km
right ascension of ascending node: 262.7887°
argument of perigee: 222.2716°
revolutions per day: 15.52613864
mean anomaly at epoch: 137.8321°
orbit number at epoch: 707

The dashed part of the orbit path shows where the satellite is in the earth's shadow,  

DLR